Weather History for Panama City, FL

Change the Weather History Date:

Thursday, June 6, 2013

  Actual Average Record
Temperature  
Mean Temperature 78 °F -  
Max Temperature 86 °F - 96 °F (2011)
Min Temperature 69 °F - 69 °F (2013)
Degree Days  
Heating Degree Days 0    
Cooling Degree Days 13    
Growing Degree Days 28 (Base 50)    
Moisture  
Dew Point 69 °F    
Average Humidity 74    
Maximum Humidity 93    
Minimum Humidity 55    
Precipitation  
Precipitation T in - 0.02 in (2012)
Month to date precipitation  
Year to date precipitation  
Sea Level Pressure  
Sea Level Pressure 29.79 in    
Wind  
Wind Speed 7 mph (North)    
Max Wind Speed 18 mph    
Max Gust Speed 28 mph    
Visibility 9 miles    
Events Rain    
T = Trace of Precipitation, MM = Missing Value Source: NWS Daily Summary

Daily Weather History Graph

Daily Weather History Graph

Search for Another Location

Airport:

Trip Planner

Search our weather history database for the weather conditions in past years. The results will help you decide how hot, cold, wet, or windy it might be!

Date:

Astronomy

Jun. 06, 2013 Rise Set
Actual Time 6:40 AM EDT 8:43 PM EDT
Civil Twilight 6:13 AM EDT 9:10 PM EDT
Nautical Twilight 5:40 AM EDT 9:43 PM EDT
Astronomical Twilight 5:04 AM EDT 10:19 PM EDT
Moon 5:15 AM EDT (6/6) 7:09 PM EDT (6/6)
Length of Visible Light 14h 57m
Length of Day
14h 02m
Waning Crescent, 4% of the Moon is Illuminated
Jun 6
Waning Crescent
Jun 8
New
Jun 16
First Quarter
Jun 23
Full
Jun 30
Last Quarter

Hourly Weather History & Observations

Time (EDT) Temp. Heat Index Dew Point Humidity Pressure Visibility Wind Dir Wind Speed Gust Speed Precip Events Conditions
12:53 AM 73.0 °F - 70.0 °F 90% 29.94 in 10.0 mi Calm Calm - N/A   Mostly Cloudy
1:53 AM 72.0 °F - 69.1 °F 91% 29.92 in 10.0 mi NNW 3.5 mph - N/A   Scattered Clouds
2:53 AM 72.0 °F - 70.0 °F 93% 29.89 in 10.0 mi NE 3.5 mph - N/A   Scattered Clouds
3:53 AM 73.0 °F - 70.0 °F 90% 29.86 in 10.0 mi NE 3.5 mph - N/A   Overcast
4:53 AM 72.0 °F - 70.0 °F 93% 29.83 in 10.0 mi ENE 8.1 mph - N/A   Clear
5:51 AM 71.6 °F - 69.8 °F 94% 29.75 in 10.0 mi East 17.3 mph 25.3 mph N/A   Mostly Cloudy
5:53 AM 72.0 °F - 69.1 °F 91% 29.78 in 10.0 mi East 19.6 mph 27.6 mph N/A   Mostly Cloudy
6:37 AM 71.6 °F - 69.8 °F 94% 29.76 in 10.0 mi ENE 3.5 mph - N/A   Overcast
6:45 AM 71.6 °F - 69.8 °F 94% 29.77 in 10.0 mi East 5.8 mph - N/A   Mostly Cloudy
6:53 AM 72.0 °F - 69.1 °F 91% 29.80 in 10.0 mi ENE 3.5 mph - N/A   Overcast
7:29 AM 71.6 °F - 69.8 °F 94% 29.78 in 10.0 mi NNW 5.8 mph - N/A   Overcast
7:53 AM 72.0 °F - 69.1 °F 91% 29.81 in 10.0 mi NNW 6.9 mph - N/A   Overcast
8:53 AM 73.0 °F - 70.0 °F 90% 29.82 in 10.0 mi NNE 4.6 mph - N/A   Overcast
9:00 AM 73.4 °F - 69.8 °F 88% 29.79 in 10.0 mi NNE 6.9 mph - N/A   Overcast
9:36 AM 73.4 °F - 69.8 °F 88% 29.80 in 10.0 mi North 10.4 mph - N/A   Overcast
9:53 AM 73.9 °F - 70.0 °F 87% 29.83 in 10.0 mi North 10.4 mph - N/A   Overcast
10:20 AM 73.4 °F - 69.8 °F 88% 29.79 in 10.0 mi North 9.2 mph - 0.00 in Rain Light Rain
10:41 AM 73.4 °F - 71.6 °F 94% 29.79 in 2.5 mi North 9.2 mph - 0.00 in Rain Light Rain
10:53 AM 73.0 °F - 71.1 °F 93% 29.83 in 1.0 mi North 6.9 mph - 0.00 in Rain Light Rain
11:14 AM 73.4 °F - 71.6 °F 94% 29.79 in 4.0 mi North 9.2 mph - 0.00 in   Overcast
11:26 AM 73.4 °F - 71.6 °F 94% 29.79 in 3.0 mi North 6.9 mph - 0.00 in   Overcast
11:53 AM 73.9 °F - 71.1 °F 91% 29.82 in 9.0 mi North 9.2 mph - 0.00 in   Overcast
12:53 PM 78.1 °F - 71.1 °F 79% 29.81 in 10.0 mi NNE 10.4 mph - N/A   Overcast
1:00 PM 78.8 °F - 69.8 °F 74% 29.77 in 10.0 mi NNE 8.1 mph - N/A   Overcast
1:53 PM 80.1 °F 82.9 °F 69.1 °F 69% 29.77 in 10.0 mi NNE 13.8 mph - N/A   Mostly Cloudy
2:53 PM 82.0 °F 84.9 °F 68.0 °F 62% 29.75 in 10.0 mi NNE 12.7 mph 19.6 mph N/A   Mostly Cloudy
3:53 PM 84.9 °F 87.6 °F 66.9 °F 55% 29.74 in 10.0 mi NNW 18.4 mph 24.2 mph N/A   Mostly Cloudy
4:00 PM 84.2 °F 86.6 °F 66.2 °F 55% 29.70 in 10.0 mi North 18.4 mph 24.2 mph N/A   Mostly Cloudy
4:53 PM 82.9 °F 85.8 °F 68.0 °F 60% 29.73 in 10.0 mi North 15.0 mph 20.7 mph N/A   Mostly Cloudy
5:53 PM 82.0 °F 84.9 °F 68.0 °F 62% 29.72 in 10.0 mi North 9.2 mph - N/A   Scattered Clouds
6:53 PM 82.0 °F 85.5 °F 69.1 °F 65% 29.72 in 10.0 mi NNW 12.7 mph 18.4 mph N/A   Scattered Clouds
7:53 PM 81.0 °F 83.8 °F 68.0 °F 65% 29.74 in 10.0 mi NNW 10.4 mph - N/A   Scattered Clouds
8:53 PM 77.0 °F - 66.9 °F 71% 29.76 in 10.0 mi NNW 6.9 mph - N/A   Clear
9:53 PM 73.9 °F - 68.0 °F 82% 29.78 in 10.0 mi NNW 3.5 mph - N/A   Clear
10:53 PM 73.0 °F - 68.0 °F 84% 29.81 in 10.0 mi West 3.5 mph - N/A   Clear
11:53 PM 72.0 °F - 68.0 °F 87% 29.80 in 10.0 mi Calm Calm - N/A   Clear